Wetbulb
22.17 22.38 22.94 23.53 24.93 26.64 26.15 25.45 26.01 26.29 26.27 26.10 26.05 26.88 27.04 27.83 27.79 28.11 28.24 28.29 28.02 27.34 27.33 26.37 26.65 26.48 26.47 25.34 25.11 24.84 25.60 25.98
20.67 21.34 22.04 23.32 24.20 25.43 25.10 24.34 24.59 25.07 25.27 24.67 24.48 24.52 24.93 24.94 25.23 25.65 26.45 26.52 26.25 26.40 26.12 26.17 25.55 26.06 25.36 24.26 24.62 24.30 23.65 24.04
19.45 20.44 20.97 21.75 23.21 23.56 23.98 23.63 24.53 24.95 24.57 24.09 23.87 23.68 22.78 22.84 23.46 24.43 24.23 25.08 24.72 24.75 24.47 24.57 24.52 24.70 23.59 22.44 23.09 22.20 21.53 22.18
18.45 19.04 19.80 21.64 22.29 22.64 22.89 23.50 24.29 24.48 24.26 23.93 23.49 23.00 22.26 22.16 22.59 22.92 22.53 22.78 23.53 23.41 22.81 22.85 22.72 22.91 23.06 22.51 21.83 21.42 21.23 21.60
17.87 18.95 20.20 21.41 21.61 21.97 22.76 23.78 23.91 23.48 23.04 22.74 23.04 23.26 23.39 23.49 23.22 23.05 22.80 21.91 21.84 22.07 22.27 22.48 22.57 22.67 22.75 22.84 22.85 22.72 22.81 22.49
17.06 18.66 19.87 20.76 21.76 22.72 23.20 23.48 24.14 22.96 22.56 22.49 23.28 23.54 23.70 23.69 23.72 24.11 24.07 23.85 23.63 23.15 23.19 23.43 23.11 23.04 22.19 22.08 21.50 20.98 20.83 21.93
16.92 18.43 19.18 20.94 21.78 22.66 22.95 22.98 23.60 22.88 22.77 23.94 24.24 23.83 23.76 23.85 23.73 23.81 23.91 24.12 24.33 23.74 23.54 23.48 24.84 26.35 25.43 23.33 22.00 21.89 21.21 19.84
17.60 18.25 20.51 22.21 23.61 22.34 23.04 23.82 23.28 22.90 23.19 23.37 23.69 23.36 23.46 23.73 23.38 22.94 22.81 23.37 22.78 22.46 22.51 22.08 23.09 24.80 24.20 23.00 21.00 20.38 20.34 20.47
18.83 19.72 21.69 22.55 23.21 23.60 23.14 22.84 22.06 21.90 21.90 22.06 22.22 22.13 22.47 22.79 22.62 22.68 22.95 22.56 22.52 22.34 22.14 21.66 22.20 23.34 22.54 21.42 19.49 18.99 19.08 19.60
15.43 16.22 20.73 20.40 22.31 22.15 21.66 21.76 21.46 20.93 20.82 21.31 21.72 21.28 21.30 20.98 21.61 22.37 22.32 22.25 22.19 22.71 22.25 21.49 21.28 22.84 22.26 21.07 19.69 18.53 17.68 18.31
16.78 18.56 19.64 20.28 22.50 21.49 20.53 20.58 19.81 20.24 20.35 21.09 21.32 20.98 20.58 20.73 21.51 22.44 22.32 21.44 21.97 21.79 22.70 22.95 21.74 23.53 22.73 21.67 20.44 18.25 17.95 18.00
16.88 18.38 18.51 19.22 21.10 19.74 19.82 18.79 19.80 20.37 20.56 20.50 20.68 20.29 20.40 20.50 20.97 20.95 20.80 20.69 20.30 19.99 20.44 20.91 22.97 23.46 24.06 22.77 20.58 19.31 18.87 17.95
17.60 18.58 19.52 20.26 20.94 19.76 19.63 19.83 20.25 20.26 19.62 18.84 19.28 20.25 19.93 18.89 19.16 19.59 19.81 18.96 18.93 19.27 19.37 19.58 20.31 22.38 22.81 23.40 22.59 20.75 19.32 18.15
19.78 19.31 19.45 19.49 20.38 19.00 19.55 18.64 17.85 17.16 15.05 16.68 17.88 18.89 19.38 19.49 18.54 18.93 20.08 20.14 19.08 19.24 19.22 18.72 19.83 20.82 20.95 21.17 21.79 21.62 20.39 21.01
18.39 17.54 17.14 18.19 18.87 20.05 19.29 18.05 14.48 15.25 15.73 16.23 16.52 17.43 17.93 19.38 19.86 20.65 20.31 19.89 19.27 19.37 19.57 19.29 19.48 20.18 21.70 22.52 22.70 22.25 21.18 20.87
17.08 17.10 17.33 17.77 17.45 17.94 17.73 15.89 15.25 16.08 16.51 17.56 18.27 16.91 18.28 19.09 19.73 19.30 20.53 21.12 21.15 21.19 21.11 19.69 19.13 20.34 21.54 21.90 22.29 22.75 21.93 15.25
16.84 16.88 17.14 16.86 16.10 16.44 15.78 14.53 15.23 16.36 16.95 18.15 18.71 18.36 18.63 19.20 18.61 20.53 21.00 20.41 20.71 20.78 19.92 20.28 20.69 20.73 21.09 22.35 22.67 23.04 23.34 15.90
16.31 16.47 16.94 16.10 15.42 15.31 14.33 13.44 13.44 17.50 18.80 19.13 17.22 19.34 18.78 18.42 19.06 19.14 20.93 23.04 23.44 23.97 23.62 24.14 22.01 23.44 23.67 23.81 23.49 23.03 21.96 15.55
16.93 15.42 15.31 14.61 14.23 15.58 14.74 13.64 13.14 15.06 14.75 19.79 19.30 19.63 20.04 19.76 19.50 19.25 19.07 18.69 19.44 22.83 23.73 24.67 24.72 24.59 24.42 24.26 23.25 19.44 19.78 16.58
13.67 12.62 12.92 13.28 13.92 14.53 13.50 12.96 13.00 14.71 16.81 17.44 19.38 20.18 18.88 19.61 18.83 18.59 17.96 17.01 17.25 18.38 19.56 17.87 20.99 22.11 22.86 23.31 19.16 17.41 17.56 17.74
MSLP
1018.94 1018.98 1018.91 1018.60 1017.97 1017.25 1016.69 1016.03 1015.41 1015.10 1015.16 1015.01 1014.84 1014.67 1014.42 1014.09 1014.20 1014.23 1013.96 1013.67 1013.64 1013.83 1013.00 1013.28 1013.54 1014.14 1014.00 1014.06 1014.35 1015.30 1016.21 1015.44
1019.86 1019.71 1019.34 1018.89 1018.28 1017.60 1017.07 1016.50 1016.04 1015.78 1015.62 1015.58 1015.48 1015.25 1015.03 1015.19 1015.28 1015.04 1014.87 1014.64 1014.54 1014.37 1014.25 1014.48 1014.52 1014.67 1014.72 1015.10 1015.48 1016.47 1017.01 1016.59
1020.47 1020.23 1019.64 1019.11 1018.53 1018.01 1017.46 1016.96 1016.55 1016.31 1016.10 1015.96 1015.90 1015.96 1016.07 1016.02 1015.83 1015.66 1015.35 1015.22 1015.11 1014.98 1015.08 1015.10 1015.33 1015.76 1015.87 1016.51 1017.48 1017.03 1017.29 1018.19
1020.84 1020.49 1020.03 1019.49 1019.05 1018.58 1018.11 1017.62 1017.29 1017.02 1016.86 1016.82 1016.77 1016.75 1016.77 1016.78 1016.67 1016.44 1016.27 1016.17 1016.20 1016.29 1016.41 1016.72 1016.92 1017.36 1017.59 1018.00 1017.74 1018.07 1018.58 1018.76
1020.94 1020.61 1020.29 1019.86 1019.54 1019.17 1018.75 1018.36 1018.08 1017.91 1017.82 1017.71 1017.61 1017.47 1017.39 1017.43 1017.32 1017.26 1017.30 1017.25 1017.42 1017.74 1017.91 1018.10 1018.42 1018.61 1018.88 1018.55 1019.58 1020.12 1020.22 1020.36
1021.00 1020.78 1020.45 1020.10 1019.86 1019.63 1019.39 1019.08 1018.83 1018.64 1018.59 1018.58 1018.51 1018.37 1018.25 1018.18 1018.16 1018.11 1018.11 1018.31 1018.68 1018.80 1019.00 1019.19 1019.15 1019.75 1019.82 1019.68 1020.75 1021.06 1021.56 1020.61
1021.18 1021.04 1020.78 1020.38 1020.21 1020.03 1019.90 1019.70 1019.54 1019.42 1019.47 1019.43 1019.28 1019.19 1019.14 1019.23 1019.38 1019.38 1019.32 1019.58 1019.88 1020.19 1020.43 1020.55 1020.66 1020.86 1020.75 1020.85 1021.26 1021.83 1021.93 1021.83
1021.24 1021.24 1020.98 1020.66 1020.50 1020.43 1020.36 1020.23 1020.11 1020.21 1020.30 1020.30 1020.21 1020.12 1020.26 1020.38 1020.41 1020.39 1020.60 1020.68 1020.97 1021.13 1021.29 1021.24 1021.54 1021.82 1022.00 1022.05 1022.41 1022.38 1022.37 1022.43
1021.65 1021.60 1021.23 1021.14 1020.99 1020.83 1020.88 1020.89 1020.96 1020.94 1021.03 1021.12 1021.12 1021.14 1021.33 1021.41 1021.57 1021.57 1021.40 1021.40 1021.83 1022.20 1022.36 1022.03 1022.31 1022.49 1022.62 1022.69 1022.90 1023.11 1023.16 1023.55
1022.19 1022.16 1021.73 1021.65 1021.40 1021.30 1021.32 1021.42 1021.53 1021.68 1021.80 1021.94 1022.07 1022.17 1022.39 1022.39 1022.31 1022.26 1022.20 1022.24 1022.36 1022.55 1022.55 1022.76 1023.17 1023.32 1023.29 1023.31 1023.46 1023.32 1023.61 1023.80
1022.01 1022.00 1021.87 1021.79 1021.52 1021.58 1021.76 1021.85 1022.03 1022.23 1022.45 1022.54 1022.63 1022.73 1022.86 1022.83 1022.72 1022.80 1022.82 1022.95 1023.11 1023.07 1023.11 1023.21 1023.19 1023.25 1023.37 1023.30 1023.43 1023.89 1024.42 1024.81
1021.85 1021.73 1021.74 1021.79 1021.74 1021.90 1022.13 1022.46 1022.71 1022.90 1023.02 1023.17 1023.33 1023.40 1023.44 1023.45 1023.44 1023.52 1023.63 1023.77 1023.92 1024.03 1024.19 1024.18 1024.10 1023.98 1023.94 1024.05 1024.18 1024.36 1024.55 1024.71
1021.30 1021.27 1021.44 1021.58 1021.64 1021.90 1022.11 1022.56 1022.86 1023.12 1023.39 1023.68 1023.80 1023.76 1023.94 1024.05 1024.11 1024.12 1024.14 1024.16 1024.30 1024.40 1024.54 1024.69 1024.65 1024.53 1024.48 1024.30 1024.62 1024.86 1024.75 1024.69
1020.58 1020.85 1021.27 1021.57 1021.76 1021.97 1022.30 1022.77 1023.12 1023.35 1023.59 1023.83 1023.95 1024.03 1024.10 1024.17 1024.31 1024.32 1024.25 1024.22 1024.34 1024.41 1024.54 1024.61 1024.64 1024.73 1024.84 1024.74 1024.55 1024.60 1024.86 1024.71
1020.17 1020.55 1020.95 1021.38 1021.70 1021.88 1022.30 1022.86 1023.33 1023.56 1023.70 1023.84 1023.86 1023.91 1024.02 1023.91 1023.86 1023.71 1023.80 1023.92 1024.11 1024.27 1024.33 1024.46 1024.58 1024.63 1024.59 1024.49 1024.29 1024.32 1024.51 1024.52
1019.53 1019.91 1020.38 1021.03 1021.56 1022.02 1022.49 1023.04 1023.52 1023.77 1023.89 1023.93 1023.90 1024.05 1023.98 1024.00 1023.91 1023.84 1023.74 1023.80 1023.88 1023.90 1023.88 1023.95 1023.97 1024.00 1024.18 1024.34 1024.23 1024.11 1024.14 1024.57
1019.18 1019.63 1020.07 1020.63 1021.20 1021.75 1022.28 1022.78 1023.12 1023.31 1023.28 1023.18 1023.20 1023.31 1023.34 1023.30 1023.38 1023.47 1023.50 1023.65 1023.71 1023.70 1023.74 1023.75 1023.81 1023.80 1023.89 1023.73 1023.63 1023.53 1023.46 1024.07
1018.31 1019.01 1019.70 1020.20 1020.66 1021.12 1021.71 1022.27 1022.71 1022.79 1022.83 1022.96 1023.05 1022.98 1022.99 1023.07 1023.09 1023.04 1023.12 1023.10 1023.01 1022.91 1022.97 1022.93 1023.10 1023.08 1023.08 1022.97 1022.90 1022.88 1023.04 1023.48
1018.06 1018.84 1019.39 1019.82 1020.16 1020.67 1021.38 1021.97 1022.28 1022.42 1022.40 1022.44 1022.48 1022.59 1022.64 1022.69 1022.82 1022.88 1022.69 1022.41 1022.23 1022.20 1022.30 1022.32 1022.41 1022.49 1022.45 1022.40 1022.39 1022.35 1022.31 1022.59
1017.50 1017.97 1018.47 1018.98 1019.34 1020.15 1020.93 1021.47 1021.75 1021.87 1021.78 1021.90 1021.92 1021.95 1022.15 1022.32 1022.46 1022.38 1022.28 1022.22 1022.06 1022.00 1021.91 1021.89 1021.83 1021.74 1021.66 1021.69 1021.61 1021.53 1021.38 1021.33
Wind_Speed
11 12 12 13 12 11 10 9 9 9 7 6 7 7 6 7 8 7 7 7 7 8 11 12 13 11 12 12 12 11 9 10
11 11 11 10 10 9 9 9 9 8 8 8 8 9 8 8 7 8 8 8 9 10 11 12 13 13 15 15 16 13 12 14
10 11 11 10 9 10 9 8 9 9 9 9 9 9 9 9 9 9 11 11 12 12 13 14 14 13 14 17 11 15 14 13
9 9 9 9 9 9 10 8 8 8 9 9 9 10 10 10 10 11 12 14 14 14 15 15 15 15 15 14 16 16 14 14
6 7 8 8 8 7 8 8 9 9 10 10 10 10 10 11 12 13 13 14 15 14 14 14 13 14 14 16 14 13 12 12
5 5 6 6 6 7 8 9 9 10 10 10 10 10 11 12 12 13 14 14 13 14 14 13 13 10 12 15 12 12 10 13
2 4 5 5 5 7 7 9 8 9 10 9 11 11 13 13 12 13 14 13 13 13 12 13 10 20 19 13 10 10 10 11
1 2 3 5 6 7 7 8 9 9 10 9 9 11 11 10 11 12 11 12 12 11 11 12 12 18 17 16 9 9 9 10
2 4 5 6 6 7 8 9 9 9 10 9 9 9 9 9 9 9 9 10 9 10 10 11 10 15 15 16 10 9 10 10
1 1 3 3 4 6 7 7 7 7 7 7 7 8 7 7 8 7 7 8 8 7 9 10 9 11 10 9 7 9 9 9
3 3 3 2 4 6 5 5 6 6 5 6 6 6 6 6 7 7 7 8 7 9 8 8 8 11 10 8 6 6 4 5
5 4 4 3 2 5 4 5 4 4 4 5 5 5 5 6 6 5 6 7 6 6 5 5 4 7 10 9 5 4 3 3
7 6 5 5 5 5 4 5 4 4 4 4 3 3 4 4 4 3 4 4 4 4 4 3 4 6 6 7 6 3 2 3
9 8 7 6 5 6 5 5 4 4 4 4 3 3 3 3 3 3 2 3 3 2 2 2 1 1 1 2 3 2 2 2
9 8 8 7 7 5 6 5 3 3 3 3 3 3 2 2 2 2 2 3 3 3 3 3 3 2 1 1 2 4 4 4
9 9 9 8 7 6 5 6 6 4 3 4 3 3 3 3 3 3 2 3 3 3 2 2 2 3 3 3 2 2 2 2
10 9 8 8 7 7 6 7 6 6 5 5 5 5 5 4 4 10 9 9 9 7 5 3 8 5 8 9 10 9 10 3
14 11 8 8 9 8 8 8 8 7 6 5 5 5 6 6 5 4 7 13 14 14 15 15 12 13 14 14 13 12 9 4
8 7 8 8 10 8 9 9 9 8 6 6 6 6 5 5 4 4 5 5 5 13 15 16 18 18 17 16 13 8 8 7
8 8 9 10 11 8 9 10 10 9 7 6 5 5 5 5 5 5 5 6 6 4 9 9 16 18 19 18 9 9 8 8
Wind_Direction
337 343 343 336 336 344 351 354 5 19 25 38 40 43 49 50 61 64 58 62 66 69 70 68 68 65 74 66 64 66 43 62
351 342 332 331 337 352 2 6 18 23 32 45 49 49 49 55 54 53 64 68 71 73 78 79 79 69 76 69 74 75 65 63
345 341 337 340 347 360 7 16 25 32 38 44 50 52 55 54 52 53 59 59 63 65 67 69 66 69 75 71 72 81 57 70
348 347 341 346 360 6 12 14 31 40 46 51 56 60 59 58 60 61 64 61 61 65 66 68 72 73 73 78 69 60 65 66
347 351 356 4 8 19 27 26 40 46 49 51 55 58 61 64 64 66 68 68 64 62 67 67 73 74 75 73 70 76 72 78
351 1 3 18 21 36 35 39 44 53 52 53 57 58 62 63 63 66 65 66 67 69 67 69 67 65 74 75 77 75 75 69
353 7 14 22 42 51 48 48 47 57 57 55 59 60 60 62 65 69 68 66 69 69 71 74 76 81 80 79 77 79 72 77
84 30 45 34 60 61 57 60 57 63 67 64 66 66 66 73 72 70 75 76 68 69 73 74 75 80 84 87 84 76 70 66
70 38 33 50 55 68 67 65 59 60 66 66 67 68 65 63 67 65 67 70 75 71 71 74 73 76 77 78 76 77 74 72
179 230 56 61 85 87 80 84 78 64 63 64 71 80 81 79 79 74 78 75 72 72 77 80 79 79 85 93 92 82 73 66
186 176 122 57 82 94 85 85 78 77 71 67 71 80 82 71 69 69 73 80 78 73 60 74 73 66 63 68 74 84 98 99
189 174 142 129 109 111 109 92 90 91 92 91 92 84 85 82 80 87 93 96 94 96 84 58 53 85 69 60 65 61 63 55
180 177 166 160 159 146 148 128 131 120 106 92 69 87 93 93 99 93 107 99 97 106 103 80 46 39 50 49 68 59 35 23
184 170 173 176 189 177 161 162 154 144 136 140 126 122 133 141 142 135 129 128 118 132 154 150 134 141 87 23 12 17 345 326
180 183 181 183 194 209 160 163 139 166 175 163 174 161 180 185 191 178 178 175 172 191 193 175 188 194 195 357 4 3 339 332
191 192 192 178 192 190 167 154 175 179 182 203 210 210 202 240 227 232 245 235 214 216 218 201 224 226 211 296 285 281 333 115
195 197 193 185 190 180 170 170 179 193 198 204 204 199 215 215 223 230 236 217 226 229 220 226 248 238 237 257 263 270 280 214
197 195 186 190 198 184 176 175 192 206 199 208 219 216 212 213 221 222 207 234 237 238 239 235 235 240 241 249 252 261 274 232
187 188 190 195 211 187 177 184 199 211 226 209 205 220 219 216 222 231 234 230 226 233 240 244 246 249 254 258 269 261 247 234
170 188 191 203 215 170 175 191 202 207 220 212 226 214 219 221 227 231 233 241 247 242 236 234 249 254 256 255 246 249 251 242